Flight Track Log - Related Links

Times and Time Zones

All times are in EDT time to prevent confusion due to time zone crossing. See the EJA641 flight status page for this flight to view local times or setup timezone preferences in your user account.

Time Position Orientation Groundspeed Altitude Reporting Facility
EDT Latitude Longitude Course Direction KTS MPH feet Rate Location/Type
Thu 06:57:09 AM 41.0833 -73.7333 270° West 176 203 2,300  Level New York TRACON
Thu 06:58:03 AM 41.0833 -73.7833 270° West 193 222 5,500 3,833 Climbing New York TRACON
Thu 06:58:57 AM 41.1000 -73.8500 288° West 242 278 9,200 2,947 Climbing New York TRACON
Thu 06:59:57 AM 41.1667 -73.8167 21° North 377 434 11,100 1,436 Climbing New York TRACON
Thu 07:01:40 AM 41.2442 -73.5942 65° Northeast 424 488 13,100 736 Climbing Boston Center
Thu 07:02:40 AM 41.2850 -73.4539 69° East 413 475 13,100  Level Boston Center
Thu 07:03:40 AM 41.3342 -73.3164 64° Northeast 413 475 13,100  Level Boston Center
Thu 07:04:40 AM 41.3872 -73.1844 62° Northeast 402 463 13,100 1,550 Level Boston Center
Thu 07:05:40 AM 41.4525 -73.0717 52° Northeast 391 450 16,200 1,950 Climbing Boston Center
Thu 07:06:40 AM 41.5281 -72.9531 50° Northeast 402 463 17,000 400 Climbing Boston Center
Thu 07:07:40 AM 41.6036 -72.8372 49° Northeast 408 470 17,000  Level Boston Center
Thu 07:08:27 AM 41.6622 -72.7431 50° Northeast 420 483 17,000 -900 Level Boston Center
Thu 07:09:40 AM 41.7458 -72.6069 51° Northeast 413 475 15,200 -2,031 Descending Boston Center
Thu 07:10:34 AM 41.8189 -72.4903 50° Northeast 400 460 12,700 -2,100 Descending Boston Center
Thu 07:11:40 AM 41.8856 -72.3817 50° Northeast 392 451 11,000 -1,266 Descending Boston Center
Thu 07:12:42 AM 41.9647 -72.2558 50° Northeast 387 445 10,000 -492 Descending Boston Center
Thu 07:13:42 AM 42.0269 -72.1494 52° Northeast 365 420 10,000 -261 Level Boston Center
Thu 07:14:37 AM 42.0872 -72.0539 50° Northeast 371 427 9,500 -1,473 Descending Boston Center
Thu 07:15:32 AM 42.1514 -71.9808 40° Northeast 321 369 7,300 -2,191 Descending Boston Center
Thu 07:16:32 AM 42.2158 -71.9103 39° Northeast 297 342 5,300 -775 Descending Boston Center
Thu 07:18:30 AM 42.3333 -71.7667 42° Northeast 274 315 5,000 -98 Descending KA90
Thu 07:19:36 AM 42.4000 -71.7000 36° Northeast 276 318 5,000  Level KA90
Thu 07:20:30 AM 42.4500 -71.6500 36° Northeast 264 304 5,000 -222 Level KA90
Thu 07:21:24 AM 42.5000 -71.6000 36° Northeast 245 282 4,600 -737 Descending KA90
Thu 07:22:24 AM 42.5167 -71.5167 75° East 249 287 3,600 -800 Descending KA90
Thu 07:23:24 AM 42.5167 -71.4167 90° East 235 270 3,000 -250 Descending KA90
Thu 07:24:24 AM 42.5167 -71.3333 90° East 222 255 3,100 -211 Climbing KA90
Thu 07:25:18 AM 42.5167 -71.2667 90° East 217 250 2,600 -579 Descending KA90
Thu 07:26:18 AM 42.5167 -71.2000 90° East 199 229 2,000 -800 Descending KA90
Thu 07:27:18 AM 42.4667 -71.2167 194° South 154 177 1,000 -800 Descending KA90
Thu 07:28:18 AM 42.4667 -71.2500 270° West 134 154 400 -600 Descending KA90

Login

Don't have an account? Register now (free) for customized features, flight alerts, and more!